CAPE
795 356 415 344 705 404 405 155 45 183 304 521 389 292 728 475 301 185 199 152 113 82 70 106 78 161 246 189 127 61 2 0 44 147 271 383 533 626
345 1187 1122 747 184 468 828 324 158 19 265 400 588 583 448 381 249 236 237 81 25 0 0 0 0 8 0 0 0 0 0 0 29 84 151 218 254 277
610 589 643 450 273 342 410 530 387 159 230 223 370 459 520 228 346 307 74 129 35 3 0 0 0 0 0 0 0 0 0 23 50 60 99 160 195 214
716 637 507 371 549 306 446 438 271 386 549 218 248 254 264 590 706 478 552 592 247 60 20 9 0 0 0 0 0 0 0 36 48 56 66 91 102 120
394 598 646 562 422 310 565 319 348 274 353 454 235 77 0 109 579 755 685 499 554 520 125 33 13 0 0 0 0 12 28 32 35 40 39 28 24 35
342 369 458 413 458 452 334 132 1 1 43 407 312 30 72 457 728 613 627 631 679 984 270 69 15 7 3 5 20 48 59 53 32 14 10 10 2 0
218 235 380 225 94 116 88 14 19 0 0 222 251 269 367 517 448 572 678 460 528 985 581 328 201 161 121 91 130 106 79 41 34 49 6 0 0 0
38 0 33 16 3 0 0 0 0 31 91 116 121 211 452 484 390 452 816 834 619 798 1003 903 1131 1067 1040 544 224 151 58 22 0 0 0 0 0 0
38 0 0 0 1 0 0 0 0 0 25 56 153 173 202 293 497 541 868 814 810 850 698 804 873 671 143 69 64 0 0 0 0 0 0 0 0 0
222 110 34 1 0 0 0 0 2 20 10 40 113 201 311 257 780 726 514 631 475 656 904 337 674 489 2 0 0 0 0 0 0 0 0 0 0 0
872 467 162 69 0 0 0 0 0 31 16 5 3 9 55 51 215 756 524 403 143 236 635 589 636 399 26 0 0 0 0 0 0 0 0 0 0 0
990 1078 337 400 194 59 40 56 31 6 34 0 0 0 0 0 24 420 634 285 323 472 613 598 477 373 256 0 0 0 0 0 0 0 0 0 0 0
767 965 810 183 124 52 19 145 119 57 0 0 0 4 15 3 0 10 126 74 91 147 197 587 146 311 76 0 0 0 0 0 0 0 0 0 0 0
636 670 879 155 62 8 0 0 0 0 0 0 0 0 0 0 1 0 0 0 2 0 0 0 0 0 0 0 4 5 0 0 0 0 0 0 0 0
2 3 442 140 10 0 0 0 0 0 0 0 0 0 0 0 2 4 8 13 0 0 0 0 0 0 0 0 0 7 3 0 0 0 0 0 0 0
0 0 0 4 0 0 0 0 0 0 0 0 0 0 0 46 31 17 6 0 0 0 0 0 0 0 0 0 0 0 0 0 0 0 0 0 0 0
0 0 0 0 0 0 0 0 0 0 0 0 0 0 0 53 46 25 4 0 0 0 0 0 0 0 0 0 0 0 0 0 0 0 0 0 0 0
0 0 0 0 2 5 0 0 0 0 0 0 0 0 0 0 17 3 0 0 0 0 0 0 0 0 0 0 0 0 0 0 0 0 0 0 0 0
0 0 0 1 12 0 0 0 0 0 0 0 0 0 0 0 0 0 0 0 0 1 0 0 0 0 0 0 0 0 0 0 17 5 0 0 0 0
0 0 0 0 0 1 0 2 0 0 0 0 0 0 0 0 0 0 0 0 0 0 0 0 0 0 0 0 0 0 0 0 0 1 0 0 0 0
0 0 0 0 0 0 0 3 0 0 0 0 0 0 0 0 0 0 0 0 0 0 0 0 0 0 10 3 0 0 0 0 5 0 0 0 0 0
0 0 0 0 0 0 0 0 1 0 0 0 0 0 0 0 0 0 0 0 0 0 0 0 0 0 0 0 0 0 4 0 0 0 0 0 3 14
0 0 0 0 0 0 0 0 0 0 0 15 72 36 22 0 0 0 0 0 0 0 0 0 0 1 1 0 0 0 12 12 0 0 0 0 0 0
CIN
-10 -24 -22 -22 -4 -24 -20 -45 -36 -13 -5 -29 -19 -24 -11 -15 -25 -80 -90 -108 -139 -170 -190 -190 -214 -170 -134 -136 -144 -136 -10 0 -141 -129 -108 -91 -77 -63
-27 -2 -2 -16 -29 -16 -11 -29 -45 -18 -10 -35 -15 -22 -18 -17 -34 -54 -119 -139 -120 0 0 0 0 -143 0 0 0 0 0 0 -140 -151 -132 -118 -115 -111
-11 -8 -20 -18 -31 -22 -25 -11 -37 -57 -93 -18 -18 -44 -45 -40 -25 -30 -92 -135 -162 -66 0 0 0 0 0 0 0 0 0 -217 -190 -180 -167 -151 -151 -149
-12 -10 -24 -16 -21 -34 -10 -18 -24 -15 -5 -29 -39 -56 -64 -43 -24 -22 -16 -13 -84 -133 -204 -224 0 0 0 0 0 0 0 -224 -220 -227 -214 -193 -191 -195
-12 -4 -7 -9 -26 -26 -17 -13 -20 -118 -16 -7 -22 -115 0 -146 -9 -20 -18 -11 -5 -25 -118 -188 -270 0 0 0 0 -291 -271 -258 -256 -239 -249 -266 -264 -257
-17 -5 -6 -8 -10 -11 -21 -43 -47 -19 -47 -5 -29 -96 -141 -29 -6 -33 -22 -17 -13 -17 -64 -156 -221 -280 -142 -140 -271 -232 -237 -244 -272 -311 -301 -281 -70 0
-13 -2 -2 -19 -51 -36 -55 -103 -102 0 0 -14 -17 -17 -19 -20 -48 -54 -35 -28 -22 -18 -63 -98 -144 -161 -174 -209 -198 -222 -241 -272 -275 -267 -73 0 0 0
-72 0 -38 -49 -85 0 0 0 -8 -59 -20 -20 -34 -28 -6 -5 -22 -17 -25 -7 -10 -24 -14 -31 -30 -31 -42 -103 -180 -210 -266 -299 0 0 0 0 0 0
-107 0 0 -15 -41 -38 0 0 0 0 -134 -82 -47 -32 -34 -22 -16 -24 -16 -26 -37 -41 -44 -22 -18 -18 -137 -234 -262 0 0 0 0 0 0 0 0 0
-57 -68 -102 -18 0 0 0 0 -138 -99 -149 -115 -81 -44 -42 -69 -24 -18 -17 -19 -18 -18 -15 -21 -25 -32 -167 0 0 0 0 0 0 0 0 0 0 0
-3 -18 -67 -102 0 0 0 0 0 -81 -127 -41 -20 -167 -152 -188 -109 -29 -17 -33 -58 -59 -12 -18 -24 -23 -189 0 0 0 0 0 0 0 0 0 0 0
-23 -2 -57 -47 -108 -147 -140 -82 -93 -136 -108 0 0 0 0 0 -118 -39 -20 -25 -20 -4 -18 -15 -19 -20 -6 0 0 0 0 0 0 0 0 0 0 0
-45 -30 -49 -107 -135 -176 -217 -40 -53 -82 0 0 0 -194 -187 -233 0 -29 -39 -54 -53 -13 -83 -20 -50 -18 -15 0 0 0 0 0 0 0 0 0 0 0
-12 -27 -38 -128 -188 -147 0 0 0 0 0 0 0 0 0 0 -80 0 0 0 -40 0 0 0 0 0 0 0 -26 -90 0 0 0 0 0 0 0 0
-9 -13 -34 -105 -187 0 0 0 0 0 0 0 0 0 0 0 -20 -14 -34 -95 0 0 0 0 0 0 0 0 -1 -31 -49 0 0 0 0 0 0 0
0 0 0 -149 0 0 0 0 0 0 0 0 0 0 0 -10 -25 -32 -26 0 0 0 0 0 0 0 0 0 0 0 0 0 0 0 0 0 0 0
0 0 0 0 0 0 0 0 0 0 0 0 0 0 0 -6 -18 -20 -13 0 0 0 0 0 0 0 0 0 0 0 0 0 0 0 0 0 0 0
0 0 0 0 -83 -89 -27 0 0 0 0 0 0 0 0 0 -15 -4 -1 0 0 0 0 0 0 0 0 0 0 0 0 0 0 0 0 0 0 0
0 0 0 -36 -7 0 0 0 0 0 0 0 0 0 0 0 0 0 0 0 0 -71 0 0 -64 0 0 0 0 0 0 0 -14 -23 0 0 0 0
0 0 0 0 0 -37 -6 -5 0 0 0 0 0 0 0 0 0 0 0 0 0 0 0 0 0 0 0 0 0 0 0 0 0 -14 0 0 0 0
0 0 0 0 0 0 0 -7 -8 0 0 0 0 0 0 0 0 0 0 0 0 -1 0 0 0 0 -10 -7 0 0 0 0 -24 -2 0 -2 0 0
0 0 0 0 0 0 0 0 -2 0 0 0 0 0 0 0 0 0 0 0 0 0 0 0 0 0 0 0 0 0 -13 0 0 0 0 -1 -2 -8
0 0 0 0 0 0 0 0 0 0 0 -21 -20 -16 -20 -1 0 0 0 0 0 0 0 0 0 -8 -17 0 0 0 -5 -24 -1 0 0 0 0 0
Wind_Speed
22 25 30 11 19 18 15 8 2 5 16 3 9 30 36 37 31 11 10 22 22 21 21 23 25 26 28 30 30 30 29 31 31 31 29 29 29 30
33 25 19 13 15 29 30 7 10 12 19 5 12 4 14 32 38 16 10 17 22 19 21 22 23 24 25 26 27 29 30 32 33 32 31 31 30 28
27 29 18 6 6 30 35 16 17 17 23 2 4 16 15 12 14 8 8 10 19 25 25 25 25 24 24 24 25 27 28 30 32 32 30 29 26 25
31 27 36 11 11 21 22 20 26 28 16 5 4 10 18 31 12 7 7 7 6 20 24 27 28 29 27 26 25 25 27 29 29 27 27 26 25 25
29 28 20 11 19 15 21 20 19 24 26 29 9 7 30 35 30 19 10 13 14 12 22 22 23 23 24 22 21 22 31 31 25 26 25 26 27 27
28 28 16 14 13 17 16 16 17 20 26 21 8 2 10 23 12 5 11 29 32 21 7 12 19 21 21 20 19 17 12 16 21 27 32 32 31 13
22 19 13 10 7 12 13 14 13 16 26 22 18 8 2 5 4 5 4 11 32 20 15 14 14 17 12 23 17 14 17 8 24 25 23 21 19 19
19 20 17 10 8 8 10 12 13 15 22 21 22 22 19 16 5 5 3 10 11 9 11 14 17 19 14 13 4 4 8 15 16 14 17 18 19 20
14 16 17 14 10 9 10 14 14 18 22 22 22 25 24 21 16 10 10 13 16 17 8 10 17 20 16 11 6 6 4 12 14 15 16 18 19 20
9 10 12 13 13 10 6 8 8 11 18 19 17 21 18 17 17 18 16 20 27 22 13 5 14 20 16 12 6 5 6 9 12 16 17 17 19 20
7 6 7 8 8 8 10 8 4 8 13 17 15 18 20 21 20 16 11 15 18 29 22 9 9 12 11 12 11 9 10 12 14 15 18 19 18 17
5 6 4 6 7 4 5 5 5 7 10 14 20 22 19 20 19 16 15 11 13 13 8 6 7 8 16 16 11 10 12 13 14 17 16 16 17 17
7 7 5 2 4 4 2 16 17 16 17 20 23 23 19 20 21 18 17 18 20 17 18 6 10 11 13 13 14 12 10 12 14 16 17 17 16 14
12 9 9 5 4 3 6 12 18 18 18 15 13 14 13 12 12 14 14 16 16 15 16 16 14 13 13 15 16 14 11 9 11 13 15 16 16 16
19 21 12 11 9 8 10 11 14 17 20 21 23 20 17 13 11 9 10 13 14 15 16 16 17 17 16 17 18 14 11 12 10 10 12 12 11 11
16 15 14 14 16 18 17 18 17 19 20 19 23 22 21 14 10 9 13 15 18 17 16 17 19 19 19 19 18 17 12 13 9 10 11 12 12 10
13 12 11 13 19 21 21 20 19 21 25 27 26 24 23 16 13 12 13 13 14 14 14 16 18 20 20 21 18 17 14 13 10 10 8 8 8 10
9 10 11 11 18 23 23 20 18 18 20 21 22 23 21 19 15 16 15 16 14 15 15 13 13 15 18 21 19 20 19 15 12 9 9 10 10 9
10 12 14 14 16 22 23 21 19 19 19 21 21 20 19 18 16 16 15 16 19 16 15 16 12 14 17 19 21 17 18 19 12 10 9 11 13 8
14 14 16 15 14 15 22 21 21 20 18 19 21 20 19 19 18 18 18 19 21 23 22 21 16 17 18 19 20 14 9 12 12 8 9 13 18 18
15 15 15 17 19 18 21 18 15 13 13 16 18 19 19 19 20 19 21 21 20 18 18 19 19 18 17 16 20 20 16 11 15 15 15 13 12 12
18 16 18 20 21 24 17 13 11 12 13 13 15 15 17 19 21 21 20 22 20 20 19 19 18 15 14 16 18 19 15 14 13 15 15 14 15 16
13 14 14 14 14 12 13 13 14 16 20 16 18 21 17 18 22 23 24 24 24 18 17 17 18 15 15 16 18 21 21 14 15 15 17 15 15 14
Wind_Direction
222 227 279 297 288 284 218 296 269 138 159 185 274 187 210 207 203 178 185 178 179 179 180 182 185 188 192 199 205 209 215 224 230 235 235 237 240 247
262 294 303 305 287 264 254 260 282 168 177 175 169 235 178 201 211 176 186 177 182 183 185 186 188 190 194 198 204 213 220 228 235 236 239 242 245 242
296 292 221 254 238 257 245 268 277 172 185 191 228 273 253 173 252 192 194 187 183 188 191 193 195 197 199 202 206 212 217 223 229 232 232 235 233 235
291 300 264 300 191 268 263 265 260 262 272 269 268 267 264 242 250 225 240 260 228 186 192 196 199 201 202 203 205 207 212 219 222 221 225 226 228 232
294 296 304 300 283 271 267 271 283 275 280 240 303 310 217 222 229 262 257 271 266 182 185 187 190 194 196 197 199 201 216 221 211 218 220 223 230 235
299 295 310 299 297 276 279 282 288 287 296 278 320 103 140 171 162 222 261 252 244 275 249 184 183 185 187 191 194 196 199 199 205 219 237 242 245 222
342 334 330 324 318 287 279 288 301 289 288 265 272 289 187 278 180 168 246 277 246 272 281 273 271 273 188 192 189 193 195 273 284 286 291 299 308 313
3 356 345 359 331 306 292 290 296 301 280 284 276 275 280 287 280 275 174 277 284 282 279 279 271 276 285 284 232 201 287 290 292 302 303 307 310 313
17 15 15 3 350 330 303 288 289 280 281 286 284 278 284 288 291 293 282 280 281 285 277 276 272 271 285 293 300 308 322 300 301 303 307 310 312 315
28 35 24 32 29 22 46 316 296 285 282 283 288 290 297 301 294 290 290 284 270 279 284 268 282 277 285 292 297 302 309 310 308 305 306 310 311 315
1 24 35 23 55 56 19 28 22 308 285 280 295 296 297 298 290 296 294 288 291 273 273 284 281 293 293 290 298 303 306 310 311 309 306 304 311 316
355 353 19 4 2 30 41 75 22 331 303 299 286 291 298 292 293 295 295 286 288 293 287 262 286 287 294 292 294 300 305 309 314 313 312 310 310 311
316 319 326 329 350 353 347 310 306 308 301 296 293 291 299 292 286 286 287 288 291 292 298 259 285 290 295 305 295 295 300 311 317 318 318 314 313 312
326 304 294 274 283 318 327 311 308 305 303 307 310 307 304 305 296 286 282 288 302 301 298 292 293 298 297 297 298 292 294 305 318 323 325 324 320 319
313 318 300 279 278 299 310 311 305 303 302 299 295 298 296 291 289 285 292 293 297 300 299 298 297 298 298 298 304 303 292 295 307 314 324 329 327 324
311 313 315 295 285 292 296 296 299 297 297 297 293 295 293 297 289 280 284 291 293 290 292 294 294 296 295 295 296 303 299 302 306 314 314 315 314 319
304 308 312 297 286 287 289 292 295 293 288 286 286 289 290 287 279 280 285 289 293 285 287 292 294 291 292 296 293 292 295 299 297 303 306 306 309 313
287 293 297 295 288 286 286 289 289 293 292 291 290 289 288 288 282 283 287 288 284 288 291 290 297 300 293 291 296 295 296 297 296 285 299 300 292 303
292 291 294 302 301 290 286 285 285 290 291 291 291 290 289 285 282 284 286 284 286 289 289 290 282 293 295 295 296 287 291 301 293 287 279 288 297 284
298 297 297 293 298 299 293 291 291 290 288 289 288 287 287 283 281 281 283 283 287 288 290 289 288 284 291 294 297 299 280 282 293 290 284 296 300 294
301 300 302 300 298 297 296 290 291 292 291 294 291 285 283 280 279 280 282 283 286 288 288 287 289 289 299 297 297 297 299 274 286 289 288 285 290 297
309 306 309 307 303 301 295 289 295 294 293 289 290 287 283 279 278 280 280 284 283 285 290 295 291 287 286 288 294 292 291 291 282 289 294 296 294 292
312 309 311 315 314 316 311 307 304 309 303 309 292 292 283 278 276 280 282 284 285 289 285 291 292 289 282 283 291 291 295 285 284 279 287 286 289 296